Location: Newark
(35.6799°N, 139.7636°E)
Time: 12:33:42
(UTC+00:00)

Vanguard 1 Rocket - Pass Details

Date: 14 December 2019
Orbit: 650 x 4226 km, 34.3° (Epoch: 17 January)

Event Time Altitude Azimuth Distance (km) Brightness Sun altitude
Rises 12:06:29 0° 258° (WSW) 8,002 12.7 -55.5°
Reaches altitude 10° 12:12:35 10° 259° (WSW) 6,576 12.1 -56.7°
Enters shadow 12:25:14 44° 256° (WSW) 3,363 10.2 -59.2°
